Starlink 30313

operational
NORAD ID: 57676 Int'l Des: 2023-124 Owner: SPXS Country: US Constellation: starlink
LEOCIRCULAR

Über Starlink 30313

Beschreibung wird geladen...

Live-Position

3D-Globus wird geladen...

Nächste Überflüge

Höhenverlauf

Altitude vs Time

uPlot chart will show altitude changes over time

Zweizeiliger Elementsatz

1 57676U 23124P 25352.35692411 .00000109 00000-0 15818-4 0 9998
2 57676 53.1602 224.7703 0001347 95.2468 264.8687 15.30193767131114
Epoch: 18. Dez. 2025 • Age: 16 hours

Aktueller Status

Höhe 479.1 km
Geschwindigkeit 7.63 km/s
Subsatellitenpunkt 44.86°N, 174.03°E
Startdatum 22. Aug. 2023
Alter 2.3 years
Typ internet

Technische Details

Klassifizierung Payload
Masse 730.00 kg
Trockenmasse 700.00 kg
Gesamtmasse 730.00 kg
Länge 0.30 m
Durchmesser 4.10 m
Spannweite 29.00 m
Form Box + pan
Hersteller SPXS
Bus-Typ Starlink V2M
Phasenstatus In Orbit
Besitzer/Staat SPXS/US

Große Konstellationen

Loading constellations...